Theta_e
314 315 316 316 316 315 314 313 313 313 313 312 312 311 311 311 311 318 320 321 320 324 330 336 340 343 342 346 346 349 353 355 353 355 353 350 351 350 349 352 353 352 352 353 354
315 314 314 315 316 316 316 314 313 314 313 313 312 312 311 311 320 320 320 318 318 321 329 331 338 339 343 345 347 350 352 350 348 349 351 351 351 350 354 354 355 354 353 353 353
316 316 315 314 316 316 317 316 314 314 314 313 313 311 310 311 324 324 323 323 317 321 326 327 329 334 341 339 342 346 345 344 345 346 349 350 352 349 353 354 353 355 356 354 353
315 316 315 315 315 315 316 316 315 314 314 314 313 310 310 322 329 325 320 322 318 327 325 327 332 340 340 339 338 345 342 341 345 346 350 352 351 352 351 351 349 350 352 353 353
315 315 315 315 315 315 316 316 316 314 314 313 312 309 318 321 323 321 320 323 324 322 326 330 337 340 340 337 338 342 338 340 342 344 350 350 352 353 353 350 349 351 353 352 352
314 314 314 315 314 315 315 316 316 314 314 313 311 310 321 321 319 330 332 328 324 323 326 327 334 337 337 336 338 336 339 342 342 346 350 351 351 352 352 350 352 353 353 350 351
314 314 314 314 314 315 315 316 316 314 314 313 310 318 319 322 320 325 327 325 324 324 327 326 327 333 336 336 334 336 342 340 340 345 347 350 356 355 352 351 354 353 352 349 349
314 314 313 313 314 314 315 315 314 314 314 312 311 321 317 314 315 318 323 323 324 323 324 327 330 335 335 334 336 340 344 340 337 342 347 350 349 351 352 352 353 353 352 350 348
313 313 313 312 313 313 314 314 313 314 314 311 321 322 319 316 318 320 322 325 323 324 324 327 330 335 335 336 339 342 340 337 336 336 341 350 350 352 351 352 353 353 352 351 349
313 313 312 312 312 314 314 314 314 315 317 320 322 324 320 320 319 320 322 326 327 324 325 329 334 336 335 336 341 339 337 335 336 334 335 340 343 344 353 353 352 353 352 352 351
312 312 312 311 311 314 315 318 323 324 321 322 321 323 323 323 320 322 324 326 329 329 329 332 334 336 335 333 332 334 333 334 335 334 345 343 345 345 348 354 354 354 352 352 351
312 312 311 311 312 314 317 324 321 322 327 323 321 321 320 320 323 324 324 328 329 331 330 331 333 333 331 331 332 333 333 334 334 334 342 344 343 344 349 354 354 354 353 352 351
311 311 311 310 312 314 320 322 321 322 329 328 326 324 324 323 324 325 326 328 329 330 330 330 331 329 330 332 334 332 333 333 333 335 345 342 343 342 348 351 352 352 351 349 349
311 310 310 311 314 319 320 320 321 321 330 329 328 327 326 326 324 325 326 328 328 330 329 329 329 329 331 334 332 333 331 331 333 336 338 340 342 341 346 349 353 352 351 349 348
311 311 311 314 320 320 322 320 321 322 335 327 327 325 326 326 326 325 326 326 327 328 329 330 329 330 333 334 330 333 331 332 333 335 336 336 340 341 342 345 347 350 349 347 348
314 314 314 312 316 321 322 321 323 333 337 328 327 328 326 327 327 325 326 326 327 329 329 330 329 328 331 331 330 330 331 332 334 333 338 335 339 341 346 347 346 345 349 347 347
317 317 315 317 327 322 320 324 332 337 332 330 327 328 328 328 328 325 325 326 330 332 332 331 331 331 330 332 332 331 332 335 334 335 335 335 339 340 344 344 346 347 345 348 347
317 317 318 319 321 321 323 329 337 333 333 329 328 328 329 329 329 330 329 330 330 331 332 334 335 331 330 332 332 332 332 334 338 335 334 334 336 343 345 345 343 346 345 345 348
316 317 319 321 320 321 328 332 335 333 331 329 328 330 330 329 330 330 332 333 332 332 334 334 334 330 330 331 330 333 333 331 332 331 332 333 335 338 345 348 347 346 345 346 344
322 325 325 321 321 324 329 326 332 330 330 329 331 331 332 330 330 330 331 331 330 330 331 334 336 332 329 329 329 331 331 332 333 336 336 334 334 339 351 352 350 349 348 348 347
324 331 324 320 323 329 330 330 328 329 330 331 331 331 332 331 330 331 333 335 334 334 330 332 334 335 333 334 334 332 332 332 332 333 335 336 340 347 352 350 349 348 348 348 349
328 334 321 321 330 330 330 328 320 332 331 331 331 332 333 334 332 333 335 335 332 333 333 332 334 336 336 332 331 332 334 334 335 337 335 335 339 347 349 348 347 347 347 347 347
335 330 323 324 332 331 329 329 330 331 332 333 334 334 334 336 338 337 337 332 331 333 334 332 334 337 337 334 333 334 336 335 335 334 336 338 344 345 346 348 347 346 345 344 345
332 333 329 329 328 330 332 333 332 329 330 332 333 335 335 336 336 338 337 331 330 333 328 329 335 336 338 338 337 337 336 335 335 336 336 336 342 342 347 348 347 344 343 342 341
327 332 328 330 330 331 331 331 332 333 330 332 333 334 335 337 336 336 334 332 330 326 331 331 336 337 337 335 335 335 336 336 336 336 338 336 340 349 345 345 344 344 342 339 340
329 329 329 332 331 332 325 333 332 331 332 333 334 331 333 335 334 335 332 331 331 330 330 329 333 332 335 334 334 334 337 338 339 339 341 341 340 341 339 338 338 336 340 336 335
319 321 326 325 331 331 332 331 330 329 329 329 330 330 331 328 327 327 326 326 326 327 328 328 328 331 331 331 332 334 334 337 338 341 342 341 344 338 339 337 336 335 336 334 333
Wind_Speed
9 8 8 8 8 7 7 7 6 5 5 5 6 6 7 9 10 6 9 4 3 7 6 5 5 4 5 1 3 3 1 6 8 5 7 2 5 4 2 4 4 3 3 7 20
9 9 9 8 8 8 7 7 6 5 5 5 5 6 6 9 8 12 9 6 5 10 8 7 3 3 2 1 1 4 3 7 6 6 5 3 4 3 5 5 4 5 6 13 18
11 10 9 8 8 8 8 7 7 6 5 4 4 4 4 6 7 3 2 4 9 13 6 4 4 6 3 1 3 2 6 7 6 6 7 6 2 6 7 7 6 7 9 13 16
12 10 9 8 8 8 8 8 7 6 4 3 3 3 3 3 4 4 2 1 12 11 7 5 5 4 2 4 3 4 3 7 9 8 5 6 3 4 9 6 3 3 11 13 15
13 11 10 9 8 7 7 7 6 5 4 2 2 1 1 7 5 3 6 4 15 10 10 6 6 3 5 6 6 3 11 11 11 8 6 6 7 6 6 6 5 7 12 14 13
14 12 11 9 8 7 7 6 6 5 4 2 2 2 5 10 2 4 2 11 11 12 8 7 3 5 5 5 5 12 12 9 6 6 4 6 6 4 3 8 8 11 13 13 14
14 13 11 9 8 7 7 6 5 6 4 3 3 1 8 5 3 4 5 8 10 8 6 3 4 7 7 6 7 11 8 5 5 5 4 6 9 6 4 8 11 13 13 12 13
15 13 12 10 8 7 7 4 6 6 5 4 4 3 5 4 5 5 4 7 7 4 2 1 2 6 5 7 6 6 5 6 9 4 3 5 7 3 8 11 12 14 13 12 13
16 14 12 10 8 6 5 5 6 6 5 5 2 5 4 2 7 9 8 6 9 7 4 2 5 5 7 7 6 4 7 10 8 4 8 4 12 5 7 11 12 13 14 13 13
17 14 12 9 6 5 8 9 8 8 4 2 4 5 6 6 8 9 9 9 5 9 8 8 6 10 7 7 3 7 10 11 12 10 9 13 13 9 10 11 12 13 14 15 14
18 14 10 7 5 11 15 7 5 5 9 4 3 3 5 5 8 10 13 9 7 10 11 9 10 11 2 3 6 8 9 12 12 8 12 11 13 10 3 11 11 13 13 15 15
18 13 9 6 5 19 9 5 4 4 4 12 6 6 4 1 10 12 13 10 8 12 6 8 12 6 3 7 8 8 10 6 7 8 8 12 10 7 5 9 11 13 13 11 16
18 12 7 3 8 13 10 6 4 2 5 7 6 6 4 8 12 16 16 10 11 11 11 13 5 4 3 7 9 9 7 8 13 14 5 13 7 7 8 3 7 11 10 11 14
18 9 3 10 8 9 7 8 7 4 6 7 8 6 8 6 8 12 18 10 7 10 8 9 9 9 10 9 9 9 3 7 12 11 8 7 6 13 8 8 5 9 11 12 14
16 7 6 15 2 8 4 7 5 4 5 8 7 6 6 7 14 11 15 8 11 10 7 4 6 9 11 10 4 6 5 9 10 12 9 7 3 14 9 12 8 6 8 11 13
16 5 16 8 5 6 2 6 6 6 4 8 8 10 12 8 6 11 14 10 4 8 10 14 6 6 9 5 9 9 12 14 11 9 6 7 8 15 10 11 8 6 8 10 15
9 6 18 7 2 2 7 7 6 5 5 9 11 13 14 10 11 15 15 15 9 9 11 11 15 14 9 14 16 14 12 7 6 6 7 4 3 8 12 12 9 6 4 10 11
5 10 9 7 2 5 8 7 6 3 3 6 10 14 11 12 9 12 14 13 13 7 3 6 11 11 9 12 6 6 9 4 3 1 5 2 4 6 13 13 10 10 8 3 11
7 3 4 3 6 6 6 7 3 2 2 9 13 16 9 13 5 10 11 10 7 13 5 3 4 6 3 3 7 7 7 8 3 4 6 4 8 10 13 15 13 14 14 12 4
1 5 6 2 7 8 6 1 2 3 2 7 12 12 13 15 9 8 8 1 6 7 11 2 4 4 7 4 4 7 4 6 4 2 3 7 3 6 12 13 13 14 13 12 11
4 4 3 5 5 6 6 1 2 1 3 6 5 8 9 10 11 9 8 6 1 3 8 7 5 8 5 11 2 6 8 6 6 5 8 6 5 6 9 11 12 12 13 13 13
5 3 6 4 5 2 6 1 2 2 2 3 2 4 9 8 9 6 6 2 1 3 5 10 5 7 3 4 3 5 8 8 7 3 3 7 3 7 8 9 11 12 12 13 14
2 3 6 4 5 7 3 4 3 4 2 1 3 1 3 6 4 4 7 4 2 2 2 6 7 7 11 8 7 8 5 7 8 9 12 8 3 6 7 8 10 12 12 13 14
4 4 4 5 3 7 3 3 4 2 3 2 3 3 7 6 2 6 7 4 2 2 4 2 11 9 12 8 6 4 6 5 11 11 11 8 8 9 6 7 7 9 11 13 13
2 3 5 6 8 6 4 0 4 3 2 0 4 2 1 4 5 5 3 5 5 3 3 5 12 13 12 8 10 10 8 8 10 13 10 10 8 9 5 5 6 6 9 12 13
4 4 2 1 2 7 5 4 2 5 2 3 3 5 3 3 5 1 2 2 4 3 5 4 9 8 14 8 9 11 5 6 5 7 10 8 9 6 5 5 7 8 7 11 13
7 2 4 3 3 6 4 3 3 2 4 5 4 2 5 7 6 5 5 5 5 5 4 5 6 6 13 3 8 13 11 5 3 4 6 9 7 5 6 8 10 10 4 9 12
Wind_Direction
332 321 314 310 306 297 287 286 283 279 275 274 279 281 289 299 304 290 257 256 191 191 150 176 217 235 276 312 333 302 310 34 26 355 18 102 252 192 280 180 195 133 23 84 145
332 318 310 304 299 303 293 281 279 278 278 276 273 277 294 315 295 262 247 248 221 186 188 215 214 244 255 55 153 316 351 18 338 318 321 8 278 270 210 191 181 182 107 130 150
336 325 312 298 291 292 290 285 273 262 272 278 272 275 300 327 271 148 180 240 203 184 229 236 252 265 290 344 46 45 11 343 325 317 297 326 259 230 236 222 206 218 156 153 161
336 328 319 309 288 282 281 280 266 253 257 267 269 274 299 277 207 109 348 220 182 184 209 224 236 243 310 7 22 282 314 325 311 322 273 279 290 230 239 272 349 193 151 161 173
337 329 320 310 298 283 282 280 257 240 235 251 252 228 281 221 256 1 326 194 176 188 214 237 256 314 334 355 339 273 334 322 326 309 268 274 265 269 251 224 191 138 155 166 177
336 330 321 311 300 288 279 276 246 216 212 218 214 170 247 235 82 9 116 154 182 191 203 231 322 339 293 343 321 328 321 312 349 343 289 278 272 242 191 182 177 165 168 167 175
335 328 323 310 298 283 272 267 226 198 187 187 168 185 248 231 139 68 120 161 171 192 197 223 284 272 346 312 338 314 314 331 13 355 309 317 245 231 179 174 170 173 169 165 174
336 327 319 310 293 275 259 241 197 182 172 167 165 233 254 200 228 244 162 159 176 179 229 145 247 285 293 316 270 306 261 357 0 321 58 282 336 140 167 194 179 175 168 170 173
335 326 316 307 289 257 227 169 173 162 151 146 221 250 221 221 215 203 188 179 170 182 183 167 249 286 251 272 273 222 347 356 347 294 311 253 317 86 185 201 192 183 174 176 178
335 327 315 304 279 222 151 136 125 107 127 201 256 237 220 178 161 165 173 160 167 158 180 212 224 247 223 254 349 330 337 335 336 339 307 290 291 316 183 218 214 188 183 185 184
337 329 318 301 252 152 131 131 187 180 211 253 159 305 127 136 160 181 171 178 172 202 212 202 239 223 238 347 300 302 311 317 336 354 323 336 329 354 235 201 213 196 192 189 191
337 328 314 294 193 159 166 236 6 353 191 220 240 264 229 280 166 166 179 199 205 219 207 206 233 247 276 266 265 287 298 325 340 348 316 341 331 27 36 187 203 206 199 207 186
337 325 306 183 167 166 206 222 121 13 250 152 192 230 200 203 193 174 193 203 216 223 217 250 109 103 240 237 254 264 297 341 332 322 163 318 106 49 74 128 200 213 220 214 202
338 324 268 146 148 173 216 214 226 320 225 134 183 156 173 224 188 162 202 195 208 236 225 260 255 241 251 245 266 266 7 300 318 322 357 356 76 52 41 99 181 202 214 217 189
336 313 192 145 88 193 116 191 220 249 194 150 141 130 164 216 127 177 185 200 239 203 230 118 191 208 232 246 247 289 268 302 309 301 297 47 288 45 53 41 72 194 193 195 182
333 247 167 186 212 223 240 177 196 230 127 149 139 173 176 185 156 143 183 229 288 241 222 268 269 264 261 267 243 282 276 278 258 266 222 27 311 52 23 11 32 85 184 192 180
338 197 166 181 86 179 159 179 221 271 153 152 172 173 184 159 143 159 177 193 202 202 213 219 232 224 243 245 242 239 257 254 221 196 50 46 252 50 36 24 24 39 121 193 199
2 153 194 202 252 169 191 217 247 114 128 131 164 173 181 163 157 177 175 191 216 254 268 236 162 194 185 236 318 223 275 262 204 214 90 146 40 79 56 37 37 68 65 146 198
111 165 194 233 199 192 238 224 66 76 108 155 157 169 171 181 190 181 205 210 203 207 264 197 165 151 225 234 251 146 229 3 290 175 253 69 109 141 59 40 40 42 40 41 34
279 190 134 194 179 226 246 1 137 357 283 213 170 195 177 184 193 200 173 118 231 238 240 61 259 191 135 191 188 289 4 219 193 261 286 130 260 51 35 28 27 29 25 24 10
245 205 49 166 180 221 230 158 281 76 263 215 181 173 186 169 208 194 167 121 259 172 230 244 252 138 204 210 186 173 215 231 302 299 311 287 96 58 53 33 25 26 18 18 12
288 198 140 146 220 233 230 247 23 324 186 197 238 155 165 158 182 188 180 13 7 234 196 219 268 255 261 104 278 286 293 281 265 223 221 305 347 91 74 48 29 30 25 22 15
284 104 181 261 234 210 180 249 278 350 95 185 135 316 168 150 153 162 135 105 71 201 211 185 239 247 190 183 186 226 202 269 280 291 280 278 80 109 76 54 39 30 27 28 20
272 171 159 221 283 285 212 188 191 68 78 65 99 155 149 140 91 153 153 135 120 105 351 236 264 268 290 17 335 235 228 252 275 272 281 246 146 158 62 41 26 29 26 25 22
326 56 357 188 205 226 263 256 213 155 114 71 123 99 163 157 154 148 173 173 177 128 226 273 267 275 274 294 279 296 278 258 255 272 280 310 314 75 36 21 15 23 19 17 15
345 336 322 303 219 228 170 176 209 139 301 121 147 96 72 86 16 128 275 224 284 160 251 237 267 281 265 243 256 250 247 258 265 266 263 277 277 64 36 21 12 15 14 16 13
8 316 289 137 208 227 191 161 132 193 76 51 96 126 115 67 21 360 317 303 288 268 241 265 255 243 262 216 254 248 245 260 287 276 308 271 46 17 3 355 352 341 31 16 2